Location: Sobotiste
(48.7170°N, 17.4000°E)
Time: 11:22:30
(UTC+02:00)

CAS-6 - Pass Details

Date: 22 March 2026
Orbit: 601 x 618 km, 97.8° (Epoch: 19 April)

Event Time Altitude Azimuth Distance (km) Brightness Sun altitude
Exits shadow 20:46:49 21° 27° (NNE) 1,391 ? -25.7°
Drops below altitude 10° 20:48:41 10° 7° (N) 1,963 ? -25.9°
Sets 20:51:05 0° 356° (N) 2,874 ? -26.3°
